Location: DARK SKY Beskydy - Park tmavé oblohy, www.darkskybeskydy.cz
(49.4926°N, 18.5016°E)
Time: 15:06:59
(UTC+02:00)

Vanguard 1 - Visible Passes

Search period start: 24 July 2024 00:00
Search period end: 03 August 2024 00:00
Orbit: 650 x 3826 km, 34.3° (Epoch: 22 July)

Date Brightness Start Highest point End Pass type
(mag) Time Alt. Az. Time Alt. Az. Time Alt. Az.
24 Jul 13.2 01:48:22 20° S 01:58:03 28° SE 02:15:24 10° E visible
24 Jul 13.3 04:00:59 10° SW 04:20:52 47° SSE 04:41:02 10° E visible
24 Jul 13.6 23:54:05 10° SE 23:57:16 11° ESE 00:00:48 10° ESE visible
25 Jul 13.1 02:06:40 21° S 02:17:23 33° SE 02:36:13 10° E visible
25 Jul 13.2 04:20:29 10° SW 04:40:46 50° SSE 05:01:05 10° ESE visible
26 Jul 13.4 00:12:22 15° SE 00:16:06 16° SE 00:26:33 10° E visible
26 Jul 13.1 02:24:56 22° SSW 02:36:51 38° SSE 02:56:45 10° E visible
27 Jul 13.2 00:30:36 19° SSE 00:35:04 21° SE 00:48:57 10° E visible
27 Jul 13.0 02:43:11 20° SSW 02:56:27 43° SSE 03:17:07 10° E visible
28 Jul 13.0 00:48:50 23° SSE 00:54:09 26° SE 01:10:23 10° E visible
28 Jul 13.1 03:01:24 18° SW 03:16:10 47° SSE 03:37:21 10° E visible
29 Jul 12.9 01:07:02 26° S 01:13:22 31° SE 01:31:19 10° E visible
29 Jul 13.1 03:19:35 15° SW 03:35:59 50° SSE 03:57:29 10° E visible
29 Jul 13.4 23:12:39 13° SE 23:12:57 13° ESE 23:19:51 10° ESE visible
30 Jul 12.8 01:25:12 27° S 01:32:43 36° SSE 01:51:58 10° E visible
30 Jul 13.0 03:37:46 11° WSW 03:55:52 51° S 04:17:31 10° ESE visible
30 Jul 13.1 23:30:48 18° SE 23:31:49 18° SE 23:42:57 10° E visible
31 Jul 12.7 01:43:22 27° SSW 01:52:12 41° SSE 02:12:25 10° E visible
31 Jul 13.0 03:57:08 10° WSW 04:15:48 52° S 04:37:28 10° ESE visible
31 Jul 12.9 23:48:57 23° SE 23:50:47 23° SE 00:04:39 10° E visible
01 Aug 12.8 02:01:31 25° SSW 02:11:49 45° SSE 02:32:43 10° E visible
01 Aug 13.1 04:16:56 10° WSW 04:35:45 52° S 04:57:17 10° ESE visible
02 Aug 12.7 00:07:05 27° SSE 00:09:54 28° SE 00:25:43 10° E visible
02 Aug 12.8 02:19:38 21° SW 02:31:32 48° SSE 02:52:56 10° E visible
02 Aug 13.1 04:36:49 10° WSW 04:55:41 50° S 05:16:58 10° SE visible
